Volver al catálogo

NOAA 16 DEB

ActivoSSO
NORAD 41302·DEBRIS·🇺🇸 United States

Lanzado Sep 21, 2000 desde Vandenberg Space Force Base

Loading…

Próximos Pases (próximas 24 horas)

TLE

ActualizadoSource: Space-Track

Época: Sep 13, 2026, 09:27 UTC

1 41302U 00055HE  26256.39408138  .00002332  00000-0  99220-3 0  9992
2 41302  98.7080 317.8653 0017647 308.5556  51.4042 14.26100952551584

Sigue NOAA 16 DEB en tiempo real con AllMySat

Download on the App Store